Tracking 19170 objects as of 23-May-2018
HD Live streaming from Space Station
objects crossing your sky now

ASIASTAR

Track ASIASTAR now!
ASIASTAR is classified as:


NORAD ID: 26107
Int'l Code: 2000-016A
Perigee: 35,776.8 km
Apogee: 35,812.7 km
Inclination: 2.4 °
Period: 1,436.1 minutes
Semi major axis: 42165 km
RCS: 19.9526 m2 (large)
Launch date: March 21, 2000
Source: United States (US)
Launch site: FRENCH GUIANA (FRGUI)

Africa, Middle East, Asia, Latin America and Caribbean. Services to underserved emerging markets; low-cost portable receivers.
aabbcc
Your satellite tracking list
Your tracking list is empty




NASA's NSSDC Master Catalog

Two Line Element Set (TLE):
1 26107U 00016A   18142.60084399 -.00000349 +00000-0 +00000-0 0  9995
2 26107 002.3815 080.9510 0004252 335.0171 145.4974 01.00268135066375
Source of the keplerian elements: AFSPC